Location: Unspecified
(0.0000°N, 0.0000°E)
Time: 17:38:49
(UTC+00:00)

Vanguard 1 - Pass Details

Date: 04 October 2020
Orbit: 650 x 3833 km, 34.3° (Epoch: 26 October)

Event Time Altitude Azimuth Distance (km) Brightness Sun altitude
Rises 05:13:32 0° 284° (WNW) 3,685 - -8.8°
Exits shadow 05:15:42 - 277° (W) 3,022 11.9 -8.2°
Reaches altitude 10° 05:15:49 10° 277° (W) 2,986 11.8 -8.2°
Maximum altitude 05:22:49 42° 207° (SSW) 2,163 11.6 -6.4°
Drops below altitude 10° 05:35:16 10° 141° (SE) 5,228 14.5 -3.3°
Sets 05:40:52 0° 135° (SE) 6,772 15.2 -1.9°
